Skip Page Navigation
NASA JPL Caltech
NASA Logo - Jet Propulsion Laboratory + View the NASA Portal
+ Center for Near-Earth Object Studies
JPL Home Earth Solar System Stars & Galaxies Technology
JPL Solar System Dynamics
BODIES ORBITS EPHEMERIDES TOOLS PHYSICAL DATA DISCOVERY FAQ SITE MAP
IMPORTANT: The SSD Announcement email list is now available. Major changes are coming in the near future, including possible hostname and/or URL changes. To be notified of such changes, subscribe to this email list.

Please visit this page for more details.


JPL Small-Body Database Browser
Search: [ help ]  
48336 (2002 PS6)
Classification: Inner Main-belt Asteroid          SPK-ID: 2048336
Ephemeris | Orbit Diagram | Orbital Elements | Mission Design | Physical Parameters | Discovery Circumstances ]

[ show orbit diagram ]
Orbital Elements at Epoch 2458600.5 (2019-Apr-27.0) TDB
Reference: JPL 19 (heliocentric ecliptic J2000)
 Element Value Uncertainty (1-sigma)   Units 
e .09469827631073295 5.9405e-08  
a 1.960663364298563 9.1261e-09 au
q 1.774991923273886 1.1466e-07 au
i 17.50953957823866 4.9085e-06 deg
node 257.2302813742657 2.102e-05 deg
peri 79.19771519740931 3.4572e-05 deg
M 13.84829546989615 2.8497e-05 deg
tp 2458561.925811518220
(2019-Mar-19.42581152)
7.9283e-05 TDB
period 1002.773798669179
2.75
7.0013e-06
1.917e-08
d
yr
n .3590041946426705 2.5065e-09 deg/d
Q 2.146334805323239 9.9903e-09 au
  Orbit Determination Parameters
   # obs. used (total)      537  
   data-arc span      7995 days (21.89 yr)  
   first obs. used      1997-12-04  
   last obs. used      2019-10-25  
   planetary ephem.      DE431  
   SB-pert. ephem.      SB431-N16  
   condition code      0  
   norm. resid. RMS      .57558  
   source      ORB  
   producer      Otto Matic  
   solution date      2019-Nov-07 06:36:37  

Additional Information
 Earth MOID = .836113 au 
 Jupiter MOID = 3.10327 au 
 T_jup = 3.819 
[ show covariance matrix ]

Ephemeris | Orbit Diagram | Orbital Elements | Mission Design | Physical Parameters | Discovery Circumstances ]

Physical Parameter Table
Parameter Symbol Value Units Sigma Reference Notes
absolute magnitude H 15.8   n/a MPO337644  
rotation period rot_per 7.031 h n/a LCDB (Rev. 2019-January); Warner et al., 2009 Published Reference List:
[Warner, B.D. (2014) Minor Planet Bull. 41, 27-32.]

48336 (2002 PS6)          Discovered 2002-Aug-06 by LINEAR at Socorro
Reference: 20020921/Numbers.arcLast Updated: 2004-04-19

Alternate Designations
 2002 PS6 = 1997 YA10 
Ephemeris | Orbit Diagram | Orbital Elements | Mission Design | Physical Parameters | Discovery Circumstances ]
ABOUT SSD CREDITS/AWARDS PRIVACY/COPYRIGHT GLOSSARY LINKS
FirstGov
(server date/time)  
NASA Home Page
Site Manager:   Ryan S. Park
Webmaster  Alan B. Chamberlin